[[{"header":{"parameterUnit":"m.s-1","parameterCategory":1,"la1":30.2991,"la2":30.254,"lo1":-89.0895,"lo2":-89.0444,"dy":0.0017,"dx":0.0017,"nx":28,"ny":28,"refTime":"2023-11-17T03:00:00:Z","depth":0,"parameterNumber":2,"parameterNumberName":"U-component_of_WINDS"},"data":[0,0,0,0,0,0,0,0,0,0,0,0,0,0,0,0,0,0,0,0,0,0,0,0,0,0,0,0,0,0,0,0,0,0,0,0,0,0,0,0,0,0,0,0,0,0,0,0,0,0,0,0,0,0,0,0,0,0,1.8568,1.8569,0,1.8648,1.8649,1.8649,1.8645,1.8644,1.8643,1.8641,1.8728,1.8731,1.8735,0,0,0,0,0,0,0,0,0,0,0,0,0,1.8417,1.8419,1.8568,1.8569,1.857,1.8647,1.8649,1.865,1.8645,1.8644,1.8642,1.8641,1.8727,1.8731,1.8735,0,0,0,0,0,0,0,0,0,0,0,0,0,1.8488,1.842,1.8568,1.8577,1.8578,1.8647,1.8649,1.865,1.8645,1.8644,1.8642,1.864,1.8726,1.8731,1.8736,1.8802,0,0,1.8751,1.8753,0,0,0,0,0,0,0,0,1.8484,1.8494,1.8574,1.8576,1.8578,1.8634,1.8627,1.8701,1.8646,1.862,1.8641,1.8639,1.8699,1.8706,1.8725,1.8806,1.881,1.8752,1.8755,1.8757,1.8758,0,0,0,0,0,0,0,1.8479,1.849,1.8599,1.8576,1.8578,1.8579,1.8587,1.8641,1.8668,1.8622,1.8622,1.8631,1.8699,1.872,1.8727,1.8811,1.8751,1.8756,1.8759,1.8761,1.8953,1.8955,0,0,0,0,0,0,1.8471,1.8486,1.8597,1.8602,1.8526,1.8583,1.8592,1.8618,1.8668,1.8673,1.8633,1.8631,1.8712,1.8721,1.873,1.8811,1.8757,1.8762,1.8765,1.8951,1.8953,1.8955,0,0,0,0,0,0,1.8468,1.8481,1.8594,1.8544,1.8558,1.8587,1.8617,1.8621,1.8641,1.8676,1.8681,1.8648,1.8711,1.8723,1.8784,1.8814,1.8764,1.8769,1.8948,1.8951,1.8954,1.8975,0,0,0,0,0,0,1.8464,1.848,1.8504,1.8544,1.8561,1.8645,1.8619,1.8623,1.8649,1.8648,1.8692,1.8697,1.8711,1.8777,1.8789,1.882,1.8773,1.8946,1.895,1.8953,1.8971,1.8978,1.8984,0,0,0,0,0,1.8458,1.8508,1.8505,1.8519,1.8591,1.8647,1.8656,1.8669,1.8652,1.8677,1.87,1.8696,1.8809,1.8783,1.8797,1.883,1.8944,1.8949,1.8953,1.8969,1.8977,1.8983,0,0,0,0,0,0,1.8471,1.8513,1.8511,1.8574,1.8607,1.8646,1.8678,1.8677,1.8716,1.8713,1.8729,1.8739,1.8801,1.8822,1.8792,1.8898,1.8874,1.8882,1.8882,1.889,1.8895,1.8889,1.8777,0,0,0,0,0,1.8481,1.8521,1.8556,1.8609,1.8625,1.8649,1.8673,1.868,1.8715,1.8729,1.8756,1.8792,1.8835,1.8864,1.8906,1.8975,1.8985,1.9005,1.9011,1.9016,1.9022,1.9061,1.9071,1.897,1.897,1.897,0,0,1.8503,1.8531,1.8555,1.8612,1.8638,1.868,1.866,1.8706,1.8738,1.8737,1.8796,1.8817,1.8858,1.8924,1.8954,1.8943,1.9052,1.9022,1.9025,1.9029,1.9067,1.9076,1.9085,1.8973,1.8973,1.8972,0,0,1.8563,1.8588,1.8635,1.8661,1.87,1.8716,1.8728,1.8767,1.8781,1.884,1.884,1.888,1.8954,1.8983,1.9008,1.9082,1.908,1.9095,1.9127,1.9165,1.9173,1.918,1.9206,1.9215,1.9101,1.9102,1.9102,0,1.8585,1.8647,1.8659,1.8705,1.8731,1.8731,1.8779,1.8805,1.8857,1.8875,1.8862,1.8956,1.8984,1.9057,1.9075,1.9095,1.9109,1.909,1.917,1.9178,1.9184,1.921,1.922,1.9103,1.9103,1.9103,1.9103,0,1.8673,1.8716,1.875,1.8798,1.8828,1.8875,1.8896,1.8925,1.893,1.8948,1.9009,1.9042,1.9091,1.9109,1.9115,1.9184,1.9176,1.9166,1.9143,1.9195,1.9219,1.9229,1.9105,1.9105,1.9104,1.9104,0,0,1.8742,1.8797,1.8809,1.8832,1.8876,1.8911,1.8959,1.9005,1.903,1.9067,1.9108,1.9172,1.9164,1.9192,1.9201,1.9235,1.9291,1.9221,1.9223,1.9233,1.9369,1.9375,1.9386,1.9291,1.9293,1.9294,1.9366,0,1.8807,1.889,1.8903,1.8977,1.9018,1.9019,1.9062,1.9094,1.9113,1.9152,1.9173,1.9217,1.9203,1.922,1.9253,1.9277,1.9319,1.9272,1.9331,1.9332,1.9319,1.9399,1.9405,1.9471,1.9375,1.9377,1.9378,0,1.8893,1.893,1.9008,1.9047,1.9065,1.9102,1.9147,1.9184,1.9222,1.9233,1.9265,1.9271,1.9322,1.9297,1.937,1.9338,1.9363,1.9378,1.9381,1.9387,1.9358,1.9406,1.9492,1.9502,1.9393,1.9392,1.9391,0,1.8936,1.9006,1.9061,1.9081,1.9128,1.9154,1.9176,1.9212,1.924,1.9279,1.9298,1.9344,1.9369,1.9405,1.9424,1.9403,1.9495,1.9471,1.9507,1.9506,1.9525,1.9523,1.9616,1.9542,1.9542,1.9542,1.9542,0,1.9006,1.9053,1.9081,1.9115,1.9169,1.9185,1.9238,1.9259,1.9292,1.9331,1.9337,1.9374,1.9397,1.9438,1.9453,1.9511,1.9523,1.9534,1.9538,1.9533,1.9532,1.9549,1.9545,1.9544,1.9544,1.9543,1.9543,0,1.9062,1.9082,1.9143,1.9183,1.9195,1.9233,1.9268,1.9302,1.9321,1.9371,1.9384,1.9414,1.9463,1.9485,1.9546,1.9557,1.9623,1.9623,1.9609,1.961,1.9644,1.964,1.9751,1.9766,1.9682,1.9683,1.9684,0,1.9105,1.9141,1.9186,1.9212,1.9234,1.9276,1.9304,1.9322,1.9352,1.9398,1.9427,1.9476,1.9516,1.9595,1.9623,1.967,1.9671,1.9707,1.9679,1.9673,1.9672,1.9669,1.9673,1.9712,1.9713,1.9713,1.9714,0,1.9179,1.9188,1.9227,1.9271,1.9304,1.934,1.9375,1.9397,1.9421,1.9454,1.9503,1.9534,1.9596,1.9645,1.9694,1.9718,1.972,1.9723,1.9733,1.9729,1.9719,1.9724,1.9623,1.972,1.9719,1.9719,1.9718,1.9718,1.923,1.9263,1.9299,1.9344,1.9372,1.9405,1.9439,1.9462,1.9503,1.9554,1.9563,1.9616,1.9655,1.972,1.9746,1.9789,1.9781,1.9796,1.98,1.9804,1.9805,1.9713,1.9798,1.9798,1.9798,1.9798,1.9798,0,1.9304,1.9328,1.9369,1.9417,1.9453,1.9451,1.949,1.952,1.9566,1.9602,1.9641,1.9699,1.9747,1.9779,1.9828,1.9856,1.9858,1.9868,1.9866,1.9872,1.981,1.9796,1.9866,1.9866,1.9865,1.9865,1.9865,1.9865,1.9347,1.9402,1.9416,1.9486,1.951,1.9561,1.9583,1.9614,1.9643,1.9706,1.9746,1.9766,1.9801,1.9853,1.9897,1.9906,1.9923,1.9933,1.9942,1.9883,1.9876,1.9869,1.9856,1.9937,1.9937,2.0,2.0,2.0001]},{"header":{"parameterUnit":"m.s-1","parameterCategory":1,"la1":30.2991,"la2":30.254,"lo1":-89.0895,"lo2":-89.0444,"dy":0.0017,"dx":0.0017,"nx":28,"ny":28,"refTime":"2023-11-17T03:00:00:Z","depth":0,"parameterNumber":3,"parameterNumberName":"V-component_of_WINDS"},"data":[0,0,0,0,0,0,0,0,0,0,0,0,0,0,0,0,0,0,0,0,0,0,0,0,0,0,0,0,0,0,0,0,0,0,0,0,0,0,0,0,0,0,0,0,0,0,0,0,0,0,0,0,0,0,0,0,0,0,0.3858,0.3857,0,0.3793,0.3792,0.3791,0.3718,0.3717,0.3716,0.3715,0.3648,0.3647,0.3647,0,0,0,0,0,0,0,0,0,0,0,0,0,0.3917,0.3916,0.3858,0.3857,0.3856,0.3793,0.3792,0.3791,0.3718,0.3717,0.3715,0.3714,0.3648,0.3647,0.3646,0,0,0,0,0,0,0,0,0,0,0,0,0,0.3875,0.3916,0.3858,0.3812,0.3807,0.3793,0.3792,0.3791,0.3718,0.3717,0.3715,0.3713,0.3649,0.3647,0.3646,0.3672,0,0,0.3643,0.3642,0,0,0,0,0,0,0,0,0.3878,0.3873,0.382,0.3815,0.381,0.3762,0.3788,0.3751,0.3719,0.3752,0.3715,0.3713,0.3687,0.3683,0.3674,0.3669,0.3666,0.3643,0.3642,0.3642,0.3641,0,0,0,0,0,0,0,0.3881,0.3876,0.3832,0.3819,0.3813,0.3794,0.3786,0.3781,0.373,0.3749,0.3743,0.3737,0.3684,0.3675,0.3672,0.3665,0.3643,0.3642,0.3641,0.3641,0.3673,0.3675,0,0,0,0,0,0,0.3891,0.3879,0.3834,0.383,0.384,0.3794,0.3786,0.3779,0.3729,0.372,0.3738,0.3734,0.3678,0.3673,0.3669,0.3693,0.3642,0.3641,0.364,0.3672,0.3674,0.3675,0,0,0,0,0,0,0.3892,0.3887,0.3837,0.3853,0.3845,0.3795,0.3788,0.3778,0.3769,0.3721,0.3712,0.3739,0.3677,0.3671,0.3671,0.369,0.364,0.3639,0.367,0.3672,0.3675,0.3742,0,0,0,0,0,0,0.3894,0.3889,0.3898,0.3854,0.3844,0.384,0.3789,0.3778,0.3768,0.3761,0.3719,0.3711,0.3675,0.3673,0.367,0.3687,0.3638,0.3668,0.3671,0.3674,0.3738,0.3747,0.3754,0,0,0,0,0,0.3897,0.3921,0.3899,0.3894,0.3855,0.3841,0.3836,0.3794,0.377,0.3778,0.3747,0.3712,0.3689,0.3674,0.3669,0.3687,0.3667,0.367,0.3674,0.3735,0.3745,0.3754,0,0,0,0,0,0,0.3969,0.3914,0.3889,0.39,0.3876,0.3829,0.3839,0.3807,0.379,0.3784,0.3733,0.3724,0.373,0.3709,0.3693,0.3707,0.3672,0.3675,0.372,0.373,0.3737,0.3741,0.3637,0,0,0,0,0,0.3987,0.398,0.3932,0.3946,0.3935,0.3889,0.3882,0.3851,0.3824,0.3814,0.3782,0.3757,0.3744,0.3736,0.3721,0.3735,0.3723,0.3745,0.3753,0.376,0.3762,0.3764,0.3772,0.3687,0.3687,0.3687,0,0,0.4022,0.3991,0.399,0.3959,0.3937,0.393,0.3881,0.3877,0.387,0.3813,0.381,0.3786,0.3755,0.3761,0.3762,0.3743,0.3783,0.3764,0.377,0.3768,0.3768,0.3776,0.3784,0.3689,0.3689,0.3688,0,0,0.4082,0.4059,0.4066,0.4045,0.4012,0.3981,0.3983,0.394,0.3922,0.3918,0.3874,0.3866,0.3845,0.3823,0.3809,0.3859,0.3825,0.3856,0.3897,0.3899,0.3906,0.3912,0.3926,0.3932,0.3859,0.3859,0.386,0,0.413,0.4118,0.4074,0.4071,0.4058,0.4006,0.4011,0.3993,0.3957,0.3948,0.3928,0.3898,0.3874,0.3872,0.3884,0.3876,0.3874,0.386,0.3909,0.3914,0.3918,0.3932,0.3938,0.3863,0.3863,0.3862,0.3862,0,0.4177,0.417,0.4179,0.4144,0.4133,0.4135,0.409,0.4083,0.4054,0.4025,0.402,0.3989,0.3965,0.3963,0.3935,0.3957,0.3946,0.3918,0.3882,0.3931,0.3942,0.3947,0.3868,0.3867,0.3866,0.3865,0,0,0.428,0.422,0.4224,0.4206,0.4165,0.4158,0.4157,0.4133,0.4127,0.4104,0.41,0.4082,0.4055,0.404,0.4009,0.4012,0.4049,0.3983,0.3982,0.3994,0.4067,0.4085,0.4092,0.4027,0.4028,0.4029,0.4068,0,0.433,0.4324,0.4284,0.4289,0.428,0.423,0.4228,0.4202,0.4175,0.4162,0.4132,0.4119,0.4087,0.4076,0.4077,0.4045,0.4063,0.4042,0.402,0.402,0.4027,0.4099,0.4119,0.4158,0.4073,0.4073,0.4074,0,0.4388,0.4367,0.4371,0.4327,0.4322,0.4322,0.4295,0.4285,0.4254,0.4233,0.4215,0.418,0.4174,0.4142,0.4131,0.4117,0.4106,0.4089,0.4089,0.4084,0.4048,0.4092,0.4169,0.4174,0.4081,0.4081,0.408,0,0.4458,0.4431,0.4429,0.4416,0.4367,0.4367,0.4346,0.4313,0.4301,0.4278,0.4269,0.4246,0.4233,0.4215,0.4174,0.4155,0.4166,0.4132,0.4147,0.4148,0.415,0.415,0.4224,0.4148,0.4148,0.4148,0.4148,0,0.4516,0.452,0.446,0.4458,0.446,0.4414,0.4417,0.4391,0.4362,0.4354,0.431,0.4303,0.425,0.4236,0.4204,0.4198,0.4194,0.4175,0.4166,0.4177,0.4179,0.4167,0.4162,0.415,0.4149,0.4149,0.4149,0,0.4594,0.4554,0.4548,0.4501,0.449,0.4493,0.4452,0.4448,0.4418,0.4407,0.4402,0.4355,0.4336,0.4294,0.4264,0.4242,0.4243,0.4229,0.4254,0.4247,0.4264,0.4262,0.433,0.4336,0.426,0.4261,0.4262,0,0.4632,0.4633,0.4587,0.4578,0.4558,0.4545,0.4532,0.4486,0.4474,0.4437,0.4437,0.4415,0.4395,0.4367,0.4329,0.4305,0.4288,0.4313,0.4284,0.4294,0.4284,0.4283,0.4281,0.4319,0.432,0.4321,0.4322,0,0.4703,0.4683,0.4666,0.4641,0.4627,0.4605,0.4581,0.4576,0.4524,0.4513,0.4493,0.4477,0.4446,0.4423,0.4394,0.4371,0.4336,0.4332,0.4333,0.4343,0.4356,0.4346,0.4268,0.433,0.4329,0.4328,0.4328,0.4328,0.476,0.4757,0.4723,0.4705,0.4682,0.466,0.4653,0.4622,0.4605,0.4576,0.455,0.4532,0.4498,0.4454,0.4434,0.4418,0.4401,0.4404,0.4404,0.4405,0.4409,0.4361,0.4412,0.4412,0.4412,0.4412,0.4411,0,0.4825,0.4801,0.4785,0.4752,0.4737,0.4708,0.4679,0.4668,0.4653,0.4625,0.4605,0.4581,0.4558,0.4518,0.4492,0.4486,0.447,0.4481,0.4479,0.4474,0.4427,0.4427,0.4494,0.4494,0.4494,0.4494,0.4494,0.4494,0.4858,0.4851,0.4827,0.4808,0.4783,0.4766,0.4751,0.473,0.4707,0.4682,0.4663,0.4637,0.4603,0.4574,0.4551,0.4539,0.453,0.4545,0.4529,0.4485,0.4477,0.447,0.4469,0.4545,0.4545,0.4576,0.4576,0.4577]}]]